Home   Weather   Tehran   Past weeks

Flag for Iran Past Weather in Tehran, Iran — Yesterday and Last 2 Weeks

Now
59 °F

Partly sunny.


Feels Like: 59 °F
Forecast: 45 / 57 °F
Wind: 5 mph from South

Location: Tehran-Mehrabad

Current Time: Dec 5, 2016 at 2:21:14 pm

Latest Report: Dec 5, 2016 at 1:30 pm


Visibility: 2 mi

Pressure: 30.15 "Hg (26.22 "Hg at 1179m altitude)

Humidity: 21%

Dew Point: 19 °F

Location of TehranLocation

Past Weather in Tehran — Graph

°F

Tehran Temperature Yesterday

Maximum temperature yesterday: 63 °F (at 1:30 pm)
Minimum temperature yesterday: 45 °F (at 3:00 am)
Average temperature yesterday: 53 °F

High & Low Weather Summary for the Past Weeks

 TemperatureHumidityPressure
High63 °F (Dec 4, 1:30 pm)93% (Dec 2, 9:00 am)30.48 "Hg (Dec 2, 9:00 am)
Low19 °F (Nov 24, 5:00 am)11% (Nov 23, 4:00 pm)29.92 "Hg (Dec 2, 1:00 pm)
Average40 °F45%30.26 "Hg
* Reported Nov 20 12:30 pm — Dec 5 1:00 pm, Tehran, Weather by CustomWeather, © 2016

Note: Actual official high and low records may vary slightly from our data, if they occured in-between our weather recording intervals... More about our weather records

Advertising

Tehran Weather History for the Previous 24 Hours

Scroll right to see more
 ConditionsComfort  
Time TempWeatherWind HumidityBarometerVisibility
1:00 pm
Mon, Dec 5
59 °FPartly sunny.No wind20%30.15 "Hg2 mi
12:30 pm57 °FPartly sunny.5 mph25%30.15 "Hg2 mi
12:00 pm57 °FScattered clouds.No wind25%30.18 "Hg3 mi
11:30 am55 °FScattered clouds.7 mph26%30.21 "Hg3 mi
11:00 am55 °FScattered clouds.7 mph28%30.21 "Hg4 mi
10:30 am57 °FScattered clouds.7 mph27%30.21 "HgN/A
10:00 am57 °FScattered clouds.5 mph25%30.21 "HgN/A
9:30 am59 °FPassing clouds.No wind23%30.21 "HgN/A
9:00 am55 °FPassing clouds.No wind28%30.21 "HgN/A
8:30 am52 °FPassing clouds.No wind32%30.21 "HgN/A
8:00 am50 °FScattered clouds.5 mph35%30.21 "HgN/A
7:30 am50 °FSunny.No wind35%30.21 "Hg10 mi
7:00 am46 °FClear.No wind46%30.21 "Hg10 mi
6:30 am45 °FClear.5 mph46%30.21 "Hg10 mi
6:00 am45 °FClear.5 mph46%30.21 "Hg10 mi
5:30 am45 °FClear.No wind46%30.21 "Hg10 mi
5:00 am46 °FClear.No wind43%30.21 "Hg10 mi
4:30 am46 °FClear.5 mph43%30.21 "Hg10 mi
4:00 am46 °FClear.No wind40%30.21 "Hg10 mi
3:30 am48 °FClear.5 mph32%30.21 "Hg10 mi
3:00 am48 °FClear.5 mph29%30.21 "Hg10 mi
2:30 am48 °FClear.5 mph29%30.21 "Hg10 mi
2:00 am46 °FClear.7 mph32%30.21 "Hg10 mi
1:30 am46 °FClear.No wind32%30.21 "Hg10 mi
1:00 am50 °FClear.No wind24%30.21 "Hg10 mi
12:30 am54 °FClear.5 mph18%30.21 "Hg10 mi
12:00 am52 °FClear.5 mph22%30.21 "Hg10 mi
11:30 pm
Sun, Dec 4
50 °FClear.5 mph37%30.24 "Hg10 mi
11:00 pm50 °FClear.5 mph35%30.24 "Hg10 mi
10:30 pm50 °FClear.5 mph35%30.24 "Hg10 mi
10:00 pm50 °FClear.5 mph35%30.24 "Hg10 mi
9:30 pm50 °FClear.5 mph30%30.24 "Hg10 mi
9:00 pm52 °FClear.7 mph28%30.27 "Hg5 mi
8:30 pm52 °FClear.5 mph32%30.27 "Hg5 mi
8:00 pm52 °FClear.7 mph32%30.27 "Hg5 mi
7:30 pm54 °FClear.7 mph28%30.27 "Hg5 mi
7:00 pm54 °FClear.5 mph28%30.24 "Hg5 mi
6:30 pm54 °FClear.5 mph30%30.24 "Hg5 mi
6:00 pm55 °FClear.No wind28%30.24 "Hg5 mi
5:30 pm55 °FClear.No wind26%30.24 "Hg5 mi
5:00 pm57 °FClear.7 mph27%30.24 "Hg5 mi
4:30 pm61 °FSunny.5 mph22%30.24 "Hg10 mi
4:00 pm61 °FSunny.No wind17%30.24 "Hg10 mi
3:30 pm63 °FSunny.5 mph17%30.24 "Hg10 mi
3:00 pm63 °FSunny.No wind17%30.24 "Hg10 mi
2:30 pm61 °FSunny.7 mph20%30.24 "Hg10 mi
2:00 pm63 °FClear.7 mph17%30.24 "Hg5 mi
Weather by CustomWeather, © 2016

See weather overviewHow to use our weather pages